SQ3KKR-13 Weather Reports


Display with metric or nautical units.
time (UTC)temp
F
wind
direction
speed
MPH
gust
MPH
rain 1hr
in
rain 24hr
in
rain mn
in
humidity
%
barometer
mb
20210507163015 45 263 5.0 9.0 0.05 0.43 0.43 86 1008.6
20210507162215 44 283 4.0 5.0 0.05 0.43 0.43 83 1008.5
20210507161415 44 267 6.0 9.0 0.05 0.43 0.43 80 1008.4
20210507160615 47 291 11.0 19.0 0.00 0.38 0.38 65 1008.5
20210507155815 49 284 9.0 19.0 0.00 0.38 0.38 65 1008.4
20210507155015 50 237 10.0 15.0 0.00 0.38 0.38 64 1007.4
20210507154215 51 246 8.0 11.0 0.00 0.38 0.38 64 1007.4
20210507153415 51 251 8.0 10.0 0.00 0.38 0.38 65 1007.2
20210507152615 51 265 8.0 11.0 0.00 0.38 0.38 65 1007.1
20210507151815 51 264 9.0 11.0 0.00 0.38 0.38 64 1007.2
20210507151015 52 254 8.0 11.0 0.00 0.38 0.38 64 1007.3
20210507150215 51 252 7.0 12.0 0.00 0.38 0.38 67 1007.3
20210507145415 52 261 8.0 12.0 0.00 0.38 0.38 70 1007.2
20210507144615 51 266 9.0 12.0 0.00 0.38 0.38 70 1007.1
20210507143815 50 258 8.0 10.0 0.00 0.38 0.38 72 1007.0
20210507143015 49 249 7.0 10.0 0.00 0.38 0.38 72 1007.1
20210507142215 49 261 5.0 8.0 0.00 0.38 0.38 77 1007.0
20210507141415 49 303 4.0 8.0 0.01 0.38 0.38 81 1007.0
20210507140615 46 354 3.0 3.0 0.02 0.38 0.38 85 1006.9
20210507135815 46 253 3.0 6.0 0.02 0.38 0.38 85 1006.8
20210507135015 44 255 4.0 6.0 0.04 0.38 0.38 91 1006.9
20210507134215 44 250 2.0 3.0 0.04 0.38 0.38 91 1006.6
20210507133415 43 261 2.0 5.0 0.05 0.38 0.38 90 1006.7
20210507132615 43 263 4.0 5.0 0.05 0.38 0.38 90 1006.7
20210507131815 42 39 3.0 4.0 0.05 0.37 0.37 89 1006.6
20210507131015 42 3 3.0 6.0 0.07 0.37 0.37 89 1006.6
20210507130215 42 294 5.0 7.0 0.07 0.35 0.35 88 1006.5
20210507125415 43 325 4.0 8.0 0.07 0.34 0.34 89 1006.5
20210507124615 43 31 5.0 8.0 0.08 0.34 0.34 89 1006.2
20210507123815 43 106 4.0 5.0 0.08 0.33 0.33 90 1005.8
20210507123015 43 298 5.0 8.0 0.09 0.33 0.33 90 1005.8
20210507122215 43 323 5.0 8.0 0.11 0.32 0.32 91 1005.6
20210507121415 43 258 3.0 4.0 0.12 0.31 0.31 91 1005.4
20210507120615 43 240 3.0 4.0 0.12 0.28 0.28 90 1005.4
20210507115815 43 275 2.0 4.0 0.12 0.28 0.28 90 1005.2
20210507115015 43 221 2.0 3.0 0.12 0.27 0.27 89 1005.1
20210507114215 43 48 2.0 3.0 0.11 0.25 0.25 88 1005.0
20210507113415 43 20 2.0 4.0 0.09 0.24 0.24 87 1005.0
20210507112615 44 20 2.0 3.0 0.09 0.22 0.22 87 1004.9
20210507111815 44 302 2.0 3.0 0.07 0.20 0.20 88 1004.9
20210507111015 45 248 3.0 6.0 0.05 0.18 0.18 88 1004.8
20210507110215 45 226 2.0 4.0 0.04 0.17 0.17 87 1004.6
20210507105415 45 45 1.0 2.0 0.02 0.15 0.15 86 1004.4
20210507104615 45 45 0.0 2.0 0.02 0.15 0.15 85 1004.3
20210507103815 45 51 1.0 2.0 0.01 0.14 0.14 83 1004.2
20210507103015 45 115 2.0 3.0 0.01 0.14 0.14 82 1004.1
20210507102215 45 105 3.0 4.0 0.00 0.13 0.13 81 1004.0
20210507101415 45 175 3.0 5.0 0.01 0.13 0.13 81 1003.9
20210507100615 46 163 5.0 5.0 0.02 0.13 0.13 75 1003.8
20210507095815 46 43 4.0 5.0 0.12 0.13 0.13 75 1003.6
20210507095015 46 275 4.0 6.0 0.13 0.13 0.13 76 1003.3
20210507094215 47 304 4.0 5.0 0.13 0.13 0.13 79 1003.1
20210507093415 46 281 3.0 4.0 0.13 0.13 0.13 79 1003.0
20210507092615 46 287 3.0 4.0 0.13 0.13 0.13 77 1002.7
20210507091815 45 267 4.0 8.0 0.12 0.12 0.12 81 1002.8
20210507091015 45 232 6.0 12.0 0.12 0.12 0.12 78 1002.6
20210507090214 47 251 11.0 14.0 0.06 0.06 0.06 70 1002.8
20210507085414 50 229 8.0 11.0 0.00 0.00 0.00 70 1002.7
20210507084614 52 240 7.0 8.0 0.00 0.00 0.00 70 1002.4
20210507083814 52 234 7.0 12.0 0.00 0.00 0.00 65 1002.3
20210507083014 53 245 7.0 12.0 0.00 0.00 0.00 62 1002.2
20210507082214 53 252 6.0 7.0 0.00 0.00 0.00 62 1002.2
20210507081414 53 234 6.0 8.0 0.00 0.00 0.00 60 1002.2
20210507080614 54 237 6.0 8.0 0.00 0.00 0.00 60 1002.1
20210507075814 54 247 7.0 9.0 0.00 0.00 0.00 60 1002.1
20210507075014 53 216 8.0 10.0 0.00 0.00 0.00 61 1002.0
20210507074214 56 235 7.0 10.0 0.00 0.00 0.00 53 1002.1
20210507073414 56 242 6.0 9.0 0.00 0.00 0.00 55 1002.0
20210507072614 54 242 7.0 11.0 0.00 0.00 0.00 60 1002.1
20210507071814 56 273 6.0 8.0 0.00 0.00 0.00 56 1002.2
20210507071014 55 259 6.0 8.0 0.00 0.00 0.00 59 1002.2
20210507070214 54 241 5.0 7.0 0.00 0.00 0.00 62 1002.0
20210507065414 54 230 4.0 6.0 0.00 0.00 0.00 59 1001.9
20210507064614 55 232 4.0 5.0 0.00 0.00 0.00 60 1002.0
20210507063814 54 235 5.0 6.0 0.00 0.00 0.00 62 1001.9
20210507063014 53 207 4.0 4.0 0.00 0.00 0.00 63 1002.1
20210507062214 52 211 4.0 4.0 0.00 0.00 0.00 65 1002.0
20210507061414 51 220 3.0 4.0 0.00 0.00 0.00 69 1002.0
20210507060614 47 204 3.0 4.0 0.00 0.00 0.00 74 1002.1
20210507055814 46 214 3.0 4.0 0.00 0.00 0.00 74 1001.9
20210507055014 46 227 4.0 6.0 0.00 0.00 0.00 73 1001.8
20210507054214 47 255 4.0 6.0 0.00 0.00 0.00 74 1001.7
20210507053414 47 247 3.0 4.0 0.00 0.00 0.00 80 1001.8
20210507052614 47 245 1.0 2.0 0.00 0.00 0.00 88 1001.7
20210507051814 46 225 0.0 1.0 0.00 0.00 0.00 91 1001.7
20210507051014 45 0 0.0 0.0 0.00 0.00 0.00 96 1001.8
20210507050214 43 0 0.0 0.0 0.00 0.00 0.00 96 1001.7
20210507045414 42 0 0.0 0.0 0.00 0.00 0.00 96 1001.6
20210507044614 41 0 0.0 0.0 0.00 0.00 0.00 96 1001.6
20210507043814 41 0 0.0 0.0 0.00 0.00 0.00 96 1001.2
20210507043014 41 0 0.0 0.0 0.00 0.00 0.00 95 1001.3
20210507042214 40 0 0.0 0.0 0.00 0.00 0.00 95 1001.2
20210507041414 40 0 0.0 0.0 0.00 0.00 0.00 95 1001.2
20210507040614 39 0 0.0 0.0 0.00 0.00 0.00 94 1001.0
20210507035814 39 0 0.0 0.0 0.00 0.00 0.00 94 1001.0
20210507035014 39 0 0.0 0.0 0.00 0.00 0.00 94 1000.8
20210507034214 38 0 0.0 0.0 0.00 0.00 0.00 93 1000.7
20210507033414 38 0 0.0 0.0 0.00 0.00 0.00 93 1000.9
20210507032614 38 0 0.0 0.0 0.00 0.00 0.00 93 1000.7
20210507031814 38 0 0.0 0.0 0.00 0.00 0.00 93 1000.8
20210507031014 39 0 0.0 0.0 0.00 0.00 0.00 93 1000.7
20210507030214 39 0 0.0 0.0 0.00 0.00 0.00 93 1000.8
20210507025414 39 0 0.0 0.0 0.00 0.00 0.00 93 1000.9
20210507024614 39 0 0.0 0.0 0.00 0.00 0.00 93 1000.8
20210507023814 39 0 0.0 0.0 0.00 0.00 0.00 93 1000.9
20210507023014 40 0 0.0 0.0 0.00 0.00 0.00 93 1000.9
20210507022214 40 0 0.0 0.0 0.00 0.00 0.00 94 1001.1
20210507021414 40 10 0.0 1.0 0.00 0.00 0.00 93 1001.1
20210507020614 40 0 0.0 0.0 0.00 0.00 0.00 93 1001.3
20210507015814 40 0 0.0 0.0 0.00 0.00 0.00 93 1001.2
20210507015014 40 0 0.0 0.0 0.00 0.00 0.00 93 1001.3
20210507014214 40 0 0.0 0.0 0.00 0.00 0.00 93 1001.2
20210507013414 40 0 0.0 0.0 0.00 0.00 0.00 93 1001.2
20210507012614 40 0 0.0 0.0 0.00 0.00 0.00 93 1001.2
20210507011814 41 0 0.0 0.0 0.00 0.00 0.00 93 1001.2
20210507011014 41 90 0.0 1.0 0.00 0.00 0.00 93 1001.2
20210507010214 41 0 0.0 0.0 0.00 0.00 0.00 93 1001.1
20210507005414 41 0 0.0 0.0 0.00 0.00 0.00 92 1001.2
20210507004614 41 45 0.0 1.0 0.00 0.00 0.00 92 1001.0
20210507003814 41 0 0.0 0.0 0.00 0.00 0.00 92 1001.1
20210507003014 40 0 0.0 0.0 0.00 0.00 0.00 92 1001.3
20210507002214 40 0 0.0 0.0 0.00 0.00 0.00 91 1001.2
20210507001414 41 0 0.0 0.0 0.00 0.00 0.00 91 1001.3
20210507000614 41 0 0.0 0.0 0.00 0.00 0.00 90 1001.4
20210506235814 40 0 0.0 0.0 0.00 0.00 0.00 90 1001.2
20210506235014 40 0 0.0 0.0 0.00 0.00 0.00 90 1001.4
20210506234214 41 0 0.0 0.0 0.00 0.00 0.00 90 1001.3
20210506233414 41 0 0.0 0.0 0.00 0.00 0.00 91 1001.4
20210506232614 41 0 0.0 0.0 0.00 0.00 0.00 91 1001.4
20210506231814 42 0 0.0 0.0 0.00 0.00 0.00 91 1001.5
20210506231014 42 360 0.0 1.0 0.00 0.00 0.00 91 1001.6
20210506230214 42 360 0.0 1.0 0.00 0.00 0.00 91 1001.6
20210506225414 41 0 0.0 0.0 0.00 0.00 0.00 90 1001.7
20210506224614 41 0 0.0 0.0 0.00 0.00 0.00 90 1001.7
20210506223814 41 0 0.0 0.0 0.00 0.00 0.00 90 1001.9
20210506223014 41 0 0.0 0.0 0.00 0.00 0.00 90 1001.8
20210506222214 41 0 0.0 0.0 0.00 0.00 0.00 89 1001.9
20210506221414 42 0 0.0 0.0 0.00 0.00 0.00 89 1001.8
20210506220614 42 0 0.0 0.0 0.00 0.00 0.00 88 1001.9
20210506215814 42 0 0.0 0.0 0.00 0.00 0.00 88 1001.9
20210506215014 42 0 0.0 0.0 0.00 0.00 0.00 87 1002.1
20210506214214 42 0 0.0 0.0 0.00 0.00 0.00 87 1002.2
20210506213414 42 0 0.0 0.0 0.00 0.00 0.00 87 1002.1
20210506212614 42 0 0.0 0.0 0.00 0.00 0.00 86 1002.0
20210506211814 42 0 0.0 0.0 0.00 0.00 0.00 86 1002.2
20210506211014 42 0 0.0 0.0 0.00 0.00 0.00 86 1002.1
20210506210214 42 0 0.0 0.0 0.00 0.00 0.00 86 1002.0
20210506205414 43 0 0.0 0.0 0.00 0.00 0.00 86 1002.0
20210506204614 42 360 0.0 1.0 0.00 0.00 0.00 85 1002.1
20210506203814 42 0 0.0 0.0 0.00 0.00 0.00 84 1002.1
20210506203014 43 0 0.0 0.0 0.00 0.00 0.00 83 1001.9
20210506202214 43 90 0.0 2.0 0.00 0.00 0.00 83 1002.1
20210506201414 44 146 1.0 2.0 0.00 0.00 0.00 83 1002.1
20210506200614 44 45 1.0 2.0 0.00 0.00 0.00 83 1002.2
20210506195814 44 45 1.0 2.0 0.00 0.00 0.00 83 1002.2
20210506195014 44 45 0.0 2.0 0.00 0.00 0.00 82 1002.2
20210506194214 44 45 0.0 2.0 0.00 0.00 0.00 81 1002.2
20210506193414 44 40 1.0 2.0 0.00 0.00 0.00 81 1002.0
20210506192615 44 39 1.0 2.0 0.00 0.00 0.00 81 1002.1
20210506191814 44 0 0.0 0.0 0.00 0.00 0.00 80 1002.2
20210506191014 45 45 0.0 1.0 0.00 0.00 0.00 80 1002.2
20210506190215 45 45 0.0 2.0 0.00 0.00 0.00 77 1002.2
20210506185414 45 0 0.0 0.0 0.00 0.00 0.00 75 1002.1
20210506184614 46 17 0.0 1.0 0.00 0.00 0.00 70 1002.1
20210506183814 46 338 0.0 1.0 0.00 0.00 0.00 70 1001.9
20210506183014 47 234 0.0 2.0 0.00 0.00 0.00 68 1002.0
20210506182214 47 244 1.0 2.0 0.00 0.00 0.00 66 1002.0
20210506181414 48 242 1.0 2.0 0.00 0.00 0.00 65 1001.9
20210506180614 49 293 2.0 2.0 0.00 0.00 0.00 64 1001.9
20210506175814 49 247 2.0 3.0 0.00 0.00 0.00 63 1001.9
20210506175014 49 239 2.0 3.0 0.00 0.00 0.00 63 1002.0
20210506174214 50 230 3.0 6.0 0.00 0.00 0.00 61 1002.0
20210506173414 50 244 5.0 6.0 0.00 0.00 0.00 61 1002.0
20210506172614 50 228 5.0 6.0 0.00 0.00 0.00 60 1002.1
20210506171814 50 232 4.0 7.0 0.00 0.00 0.00 60 1002.1
20210506171016 51 223 5.0 7.0 0.00 0.00 0.00 58 1002.1
20210506170214 51 240 6.0 7.0 0.00 0.00 0.00 58 1002.2
20210506165414 52 223 8.0 12.0 0.00 0.00 0.00 60 1002.4
20210506164615 52 220 11.0 14.0 0.00 0.00 0.00 59 1002.5
20210506163814 53 232 10.0 14.0 0.00 0.00 0.00 56 1002.3